User: anonymous   Login
Location: Unspecified
(0.0000°N, 0.0000°E)
Time: 09:15:17
(UTC+00:00)
Language:

GEOS 3 - Orbit

View from above orbital plane
View from above orbital plane
View from above satellite
View from above satellite

Ground track
Ground track

The orbit data is extracted from the following two-line orbital elements,

1  7734U 75027A   17086.48158669 -.00000137 +00000-0 +18728-4 0  9993
2  7734 114.9888 040.6680 0005941 274.2369 085.8030 14.18595894171364
Epoch (UTC): 27 March 2017 11:33:29
Eccentricity: 0.0005941
inclination: 114.9888°
perigee height: 826 km
apogee height: 834 km
right ascension of ascending node: 40.6680°
argument of perigee: 274.2369°
revolutions per day: 14.18595894
mean anomaly at epoch: 85.8030°
orbit number at epoch: 17136

The dashed part of the orbit path shows where the satellite is in the earth's shadow,  

DLR